#timestamp,LO_Frequency,Hit,StdDev 
1628640015.6,286046997.2,N
1628640035.5,286046996.9,N
1628640055.3,286047001.2,N
1628640075.1,286047002.8,N
1628640095.9,286047002.6,N
1628640115.7,286047001.1,N
1628640135.5,286046998.5,N
1628640155.4,286046999.0,N
1628640175.2,286046996.9,N
1628640195.1,286047001.0,N
1628640196.0,286047001.0,N
1628640215.8,286047000.4,N
1628640235.6,286047001.0,N
1628640255.5,286046999.9,N
1628640275.3,286047000.8,N
1628640295.1,286046999.4,N
1628640315.9,286046999.2,N
1628640335.7,286046999.6,N
1628640355.6,286046994.9,N
1628640375.4,286046995.0,N
1628640395.2,286046997.0,N
1628640415.1,286046997.5,N
1628640416.0,286046997.5,N
1628640435.8,286046999.0,N
1628640455.6,286046999.2,N
1628640475.5,286046996.5,N
1628640495.3,286047002.6,N
1628640515.2,286047005.6,N
1628640535.9,286047004.6,N
1628640555.7,286047003.8,N
1628640575.6,286047000.2,N
1628640595.4,286046998.2,N
1628640615.2,286047000.3,N
1628640635.1,286046999.3,N
1628640636.0,286046999.3,N
1628640655.8,286047000.0,N
1628640675.7,286047005.5,N
1628640695.5,286047007.4,N
1628640715.3,286047005.3,N
1628640735.2,286047005.2,N
1628640755.0,286047003.4,N
1628640755.9,286047003.4,N
1628640775.8,286047003.8,N
1628640795.6,286047005.6,N
1628640815.4,286047005.7,N
1628640835.3,286047004.1,N
1628640855.1,286047002.6,N
1628640875.9,286047000.5,N
1628640895.7,286047000.0,N
1628640915.5,286047000.2,N
1628640935.4,286047000.2,N
1628640955.2,286047001.9,N
1628640975.0,286047004.0,N
1628640976.0,286047004.0,N
1628640995.8,286047004.0,N
1628641015.6,286047003.1,N
1628641035.5,286047006.0,N
1628641055.3,286047008.6,Y
1628641075.1,286047006.1,P
1628641095.9,286047004.5,N
1628641115.7,286047004.3,P
1628641135.6,286047000.0,N
1628641155.4,286047002.6,N
1628641175.2,286047001.6,N
1628641195.1,286047003.1,N
1628641196.0,286047003.1,N
1628641215.8,286047010.4,Y
1628641235.6,286047010.4,P
1628641255.5,286047006.2,N
1628641275.3,286047006.4,N
1628641295.2,286047008.8,Y
1628641315.9,286046998.8,P
1628641335.7,286046994.9,N
1628641355.6,286046995.2,N
1628641375.4,286046998.9,N
1628641395.3,286046995.7,N
1628641415.1,286046997.6,N
1628641416.0,286046997.6,N
1628641435.8,286046997.0,N
1628641455.7,286046996.6,N
1628641475.5,286046997.8,N
1628641495.3,286046995.5,N
1628641515.2,286046997.7,N
1628641535.0,286046994.9,N
1628641535.9,286046994.9,N
1628641555.8,286046993.6,N
1628641575.6,286046996.0,N
1628641595.4,286046998.7,N
1628641615.3,286047005.1,N
1628641635.1,286047005.0,N
1628641655.8,286047003.5,N
1628641675.7,286047004.2,N
1628641695.5,286047003.0,N
1628641715.4,286047004.7,N
1628641735.2,286047009.2,N
1628641755.0,286047010.2,N
1628641755.9,286047010.2,N
1628641775.8,286047013.1,N
1628641795.6,286047017.0,Y
1628641815.4,286047016.0,P
1628641835.3,286047017.2,N
1628641855.1,286047012.9,N
1628641875.9,286047012.9,N
1628641895.7,286047010.9,N
1628641915.5,286047009.7,N
1628641935.4,286047008.1,N
1628641955.2,286047010.4,N
1628641975.0,286047011.6,N
1628641975.9,286047011.6,N
1628641995.8,286047015.3,Y
1628642015.6,286047007.9,P
1628642035.5,286047008.6,P
1628642055.3,286047007.4,P
1628642075.1,286047004.5,Y
1628642095.9,286046997.1,P
1628642115.7,286046994.9,N
1628642135.5,286046997.5,N
1628642155.4,286046997.4,N
1628642175.2,286046999.3,N
1628642195.1,286046998.6,N
1628642196.0,286046998.6,N
1628642215.8,286047002.8,N
1628642235.6,286047002.2,N
1628642255.5,286047003.2,N
1628642275.3,286047005.3,N
1628642295.1,286047007.0,N
1628642315.9,286047007.4,N
1628642335.7,286047007.1,N
1628642355.6,286047007.5,N
1628642375.4,286047004.6,N
1628642395.2,286047006.2,N
1628642415.1,286047009.0,N
1628642416.0,286047009.0,N
1628642435.8,286047009.0,N
1628642455.6,286047008.4,N
1628642475.5,286047006.3,N
1628642495.3,286047006.4,N
1628642515.2,286047006.3,N
1628642535.9,286047009.0,N
1628642555.7,286047006.5,N
1628642575.6,286047003.6,N
1628642595.4,286047003.0,N
1628642615.2,286047004.5,N
1628642635.1,286047001.4,N
1628642636.0,286047001.4,N
1628642655.8,286047004.3,N
1628642675.7,286047001.3,N
1628642695.5,286047003.7,N
1628642715.3,286047005.9,N
1628642735.2,286047003.3,N
1628642755.0,286047005.0,N
1628642755.9,286047005.0,N
1628642775.8,286047012.3,Y
1628642795.6,286047007.9,P
1628642815.4,286047010.4,P
1628642835.3,286047010.5,P
1628642855.1,286047011.3,Y
1628642875.8,286047001.5,P
1628642895.7,286047000.0,N
1628642915.5,286046999.7,N
1628642935.4,286047000.9,N
1628642955.2,286046998.1,N
1628642975.0,286046998.9,N
1628642975.9,286046998.9,N
1628642995.8,286047000.2,N
1628643015.6,286047000.1,N
1628643035.5,286047001.8,N
1628643055.3,286047005.6,N
1628643075.1,286047004.1,N
1628643095.9,286047001.3,N
1628643115.7,286047002.2,N
1628643135.5,286047001.0,N
1628643155.4,286046998.4,N
1628643175.2,286047001.9,N
1628643195.1,286047001.6,N
1628643196.0,286047001.6,N
1628643215.8,286047000.6,N
1628643235.7,286047000.7,N
1628643255.5,286046999.7,N
1628643275.3,286047001.4,N
1628643295.2,286047008.8,Y
1628643315.0,286047006.2,P
1628643315.9,286047006.2,N
1628643335.8,286047008.2,P
1628643355.6,286047009.5,Y
1628643375.4,286047006.2,P
1628643395.3,286047004.5,P
1628643415.1,286047003.2,P
1628643435.9,286047001.5,N
1628643455.7,286047005.7,Y
1628643475.5,286047004.3,P
1628643495.4,286047004.7,P
1628643515.2,286047007.1,P
1628643535.1,286047008.5,Y
1628643536.0,286047008.5,P
1628643555.8,286047001.3,N
1628643575.6,286047003.1,N
1628643595.5,286047004.7,N
